Weather History for Taunton, MA

Change the Weather History Date:

Thursday, January 17, 2013

  Actual Average Record
Temperature  
Mean Temperature 38 °F -  
Max Temperature 43 °F 35 °F 57 °F (1973)
Min Temperature 33 °F 13 °F -9 °F (1965)
Degree Days  
Heating Degree Days 27    
Moisture  
Dew Point 26 °F    
Average Humidity 66    
Maximum Humidity 89    
Minimum Humidity 45    
Precipitation  
Precipitation 0.00 in - - ()
Sea Level Pressure  
Sea Level Pressure 29.97 in    
Wind  
Wind Speed 6 mph (West)    
Max Wind Speed 13 mph    
Max Gust Speed 18 mph    
Visibility 10 miles    
Events      
Averages and records for this station are not official NWS values.
T = Trace of Precipitation, MM = Missing Value Source: NWS Daily Summary

Daily Weather History Graph

Daily Weather History Graph

Search for Another Location

Airport:

Trip Planner

Search our weather history database for the weather conditions in past years. The results will help you decide how hot, cold, wet, or windy it might be!

Date:

Astronomy

Jan. 17, 2013 Rise Set
Actual Time 7:08 AM EST 4:40 PM EST
Civil Twilight 6:37 AM EST 5:11 PM EST
Nautical Twilight 6:03 AM EST 5:45 PM EST
Astronomical Twilight 5:30 AM EST 6:18 PM EST
Moon 10:06 AM EST (1/17) 11:36 PM EST (1/17)
Length of Visible Light 10h 33m
Length of Day
9h 32m
Waxing Crescent, 37% of the Moon is Illuminated
Jan 17
Waxing Crescent
Jan 18
First Quarter
Jan 26
Full
Feb 3
Last Quarter
Feb 10
New

Hourly Weather History & Observations

Time (EST) Temp. Windchill Dew Point Humidity Pressure Visibility Wind Dir Wind Speed Gust Speed Precip Events Conditions
12:02 AM 36.0 °F 32.1 °F 32.0 °F 86% 29.86 in 9.0 mi SW 4.6 mph - N/A   Overcast
12:52 AM 36.0 °F 32.1 °F 32.0 °F 86% 29.87 in 8.0 mi SW 4.6 mph - N/A   Overcast
1:52 AM 35.1 °F 32.2 °F 30.9 °F 85% 29.87 in 10.0 mi WSW 3.5 mph - N/A   Overcast
2:52 AM 35.1 °F 32.2 °F 30.9 °F 85% 29.87 in 10.0 mi WSW 3.5 mph - N/A   Overcast
3:52 AM 34.0 °F 31.0 °F 30.0 °F 85% 29.88 in 10.0 mi SW 3.5 mph - N/A   Mostly Cloudy
4:34 AM 34.0 °F 31.0 °F 30.0 °F 85% 29.86 in 10.0 mi SSW 3.5 mph - N/A   Partly Cloudy
4:52 AM 33.1 °F 30.0 °F 30.0 °F 89% 29.87 in 9.0 mi SW 3.5 mph - N/A   Clear
6:52 AM 33.1 °F 27.7 °F 28.9 °F 85% 29.90 in 9.0 mi West 5.8 mph - N/A   Clear
7:52 AM 34.0 °F 31.0 °F 30.0 °F 85% 29.94 in 9.0 mi SW 3.5 mph - N/A   Clear
8:52 AM 36.0 °F 31.1 °F 28.9 °F 76% 29.97 in 10.0 mi SW 5.8 mph - N/A   Clear
9:52 AM 39.0 °F 34.8 °F 28.0 °F 65% 29.99 in 10.0 mi West 5.8 mph - N/A   Clear
10:52 AM 39.9 °F 32.5 °F 27.0 °F 60% 29.99 in 10.0 mi West 12.7 mph 16.1 mph N/A   Clear
11:52 AM 41.0 °F 34.3 °F 26.1 °F 55% 29.98 in 10.0 mi West 11.5 mph - N/A   Clear
12:52 PM 42.1 °F 35.7 °F 27.0 °F 55% 29.98 in 10.0 mi West 11.5 mph - N/A   Clear
1:52 PM 43.0 °F 36.8 °F 25.0 °F 49% 29.98 in 10.0 mi NW 11.5 mph 18.4 mph N/A   Clear
2:52 PM 43.0 °F 38.2 °F 23.0 °F 45% 30.01 in 10.0 mi WNW 8.1 mph 17.3 mph N/A   Partly Cloudy
3:52 PM 42.1 °F 36.1 °F 23.0 °F 47% 30.01 in 10.0 mi WNW 10.4 mph - N/A   Clear
4:52 PM 41.0 °F 38.0 °F 25.0 °F 53% 30.03 in 10.0 mi WNW 4.6 mph - N/A   Clear
5:52 PM 39.9 °F 35.8 °F 24.1 °F 53% 30.05 in 10.0 mi West 5.8 mph - N/A   Clear
6:52 PM 39.0 °F 35.7 °F 23.0 °F 53% 30.06 in 10.0 mi WNW 4.6 mph - N/A   Mostly Cloudy
8:52 PM 37.0 °F 33.3 °F 21.0 °F 52% 30.06 in 10.0 mi NW 4.6 mph - N/A   Overcast
9:52 PM 36.0 °F 29.6 °F 19.9 °F 52% 30.06 in 10.0 mi NNW 8.1 mph - N/A   Overcast
10:52 PM 35.1 °F 30.1 °F 19.0 °F 52% 30.06 in 10.0 mi NNW 5.8 mph - N/A   Overcast
11:52 PM 34.0 °F 29.8 °F 19.0 °F 54% 30.06 in 10.0 mi North 4.6 mph - 0.00 in   Overcast